Location: ??
(35.4032°N, 139.3073°E)
Time: 01:56:22
(UTC+00:00)

Meteor 1-19 Rocket - Pass Details

Date: 13 April 2024
Orbit: 805 x 929 km, 81.2° (Epoch: 25 May)

Event Time Altitude Azimuth Distance (km) Brightness Sun altitude
Exits shadow 17:58:43 67° 248° (WSW) 973 4.2 -25.7°
Maximum altitude 17:59:10 70° 279° (W) 956 4.2 -25.6°
Drops below altitude 10° 18:05:08 10° 4° (N) 2,615 7.2 -24.6°
Sets 18:07:40 0° 6° (N) 3,572 8.0 -24.2°
